QPF
0.01 0.01 0.01 0.01 0.01 0.01 0.01 0.01 0.01 0.01 0.02 0.02 0.02 0.03 0.04 0.03 0.02 0.02 0.02 0.02 0.03 0.03 0.03 0.02 0.02 0.04 0.05 0.06 0.06 0.06 0.08 0.09 0.11 0.14 0.17 0.21 0.22 0.24 0.28 0.29 0.28 0.25 0.25 0.26
0.01 0.01 0.01 0.01 0.01 0.01 0.01 0.01 0.01 0.01 0.01 0.01 0.03 0.04 0.04 0.03 0.02 0.02 0.02 0.02 0.03 0.03 0.03 0.03 0.03 0.03 0.05 0.06 0.06 0.07 0.07 0.09 0.13 0.13 0.13 0.17 0.23 0.26 0.29 0.30 0.31 0.26 0.24 0.25
0.00 0.01 0.01 0.01 0.01 0.01 0.01 0.02 0.01 0.01 0.01 0.02 0.04 0.05 0.04 0.03 0.02 0.01 0.02 0.02 0.03 0.03 0.03 0.03 0.05 0.04 0.05 0.08 0.08 0.07 0.07 0.09 0.13 0.16 0.18 0.18 0.27 0.34 0.35 0.36 0.35 0.27 0.23 0.24
0.00 0.01 0.01 0.00 0.01 0.01 0.01 0.01 0.01 0.01 0.01 0.02 0.04 0.06 0.03 0.03 0.02 0.02 0.02 0.02 0.03 0.03 0.03 0.04 0.05 0.05 0.05 0.08 0.08 0.08 0.07 0.11 0.14 0.16 0.22 0.20 0.25 0.33 0.34 0.33 0.37 0.30 0.23 0.24
0.00 0.01 0.01 0.00 0.01 0.01 0.00 0.00 0.00 0.00 0.00 0.01 0.03 0.05 0.03 0.03 0.03 0.01 0.01 0.02 0.03 0.03 0.03 0.04 0.04 0.04 0.05 0.07 0.08 0.09 0.08 0.11 0.16 0.17 0.21 0.23 0.21 0.26 0.31 0.35 0.36 0.34 0.27 0.23
0.00 0.00 0.00 0.00 0.00 0.00 0.00 0.01 0.01 0.01 0.01 0.02 0.02 0.05 0.05 0.04 0.04 0.02 0.01 0.01 0.01 0.02 0.02 0.03 0.03 0.03 0.04 0.06 0.08 0.10 0.10 0.10 0.15 0.16 0.17 0.23 0.23 0.23 0.29 0.35 0.39 0.37 0.33 0.26
0.00 0.00 0.00 0.00 0.00 0.00 0.01 0.01 0.02 0.01 0.01 0.02 0.02 0.05 0.07 0.04 0.02 0.02 0.01 0.01 0.01 0.01 0.02 0.03 0.03 0.04 0.05 0.06 0.07 0.09 0.12 0.12 0.13 0.16 0.18 0.21 0.25 0.25 0.26 0.29 0.31 0.36 0.36 0.31
0.00 0.00 0.01 0.00 0.00 0.00 0.01 0.01 0.02 0.01 0.01 0.01 0.03 0.06 0.06 0.04 0.02 0.01 0.01 0.01 0.01 0.01 0.01 0.02 0.03 0.05 0.06 0.06 0.07 0.09 0.10 0.12 0.13 0.18 0.21 0.23 0.24 0.28 0.27 0.29 0.26 0.28 0.31 0.28
0.00 0.01 0.01 0.01 0.00 0.00 0.01 0.01 0.00 0.01 0.01 0.01 0.01 0.03 0.03 0.02 0.01 0.01 0.01 0.01 0.01 0.01 0.01 0.01 0.02 0.04 0.06 0.07 0.06 0.08 0.08 0.11 0.12 0.17 0.24 0.27 0.26 0.26 0.28 0.28 0.27 0.24 0.25 0.26
0.00 0.01 0.01 0.00 0.00 0.00 0.00 0.00 0.00 0.00 0.01 0.01 0.01 0.02 0.03 0.02 0.02 0.01 0.01 0.01 0.01 0.01 0.01 0.01 0.02 0.04 0.06 0.08 0.07 0.07 0.07 0.09 0.11 0.13 0.21 0.26 0.28 0.26 0.28 0.28 0.29 0.26 0.22 0.21
0.00 0.01 0.01 0.00 0.00 0.00 0.00 0.00 0.00 0.00 0.01 0.02 0.01 0.01 0.01 0.01 0.01 0.01 0.01 0.01 0.01 0.01 0.01 0.01 0.01 0.03 0.05 0.07 0.09 0.08 0.08 0.09 0.09 0.11 0.17 0.23 0.28 0.29 0.28 0.28 0.30 0.29 0.23 0.18
0.00 0.01 0.01 0.00 0.00 0.00 0.00 0.00 0.00 0.01 0.01 0.01 0.01 0.00 0.00 0.00 0.00 0.01 0.01 0.01 0.01 0.00 0.01 0.01 0.01 0.03 0.04 0.05 0.07 0.09 0.09 0.08 0.09 0.09 0.13 0.20 0.26 0.30 0.28 0.25 0.27 0.31 0.30 0.22
0.01 0.02 0.01 0.00 0.00 0.00 0.00 0.00 0.00 0.01 0.02 0.02 0.02 0.00 0.00 0.00 0.00 0.00 0.00 0.00 0.00 0.00 0.01 0.01 0.02 0.03 0.04 0.05 0.06 0.08 0.08 0.06 0.07 0.09 0.10 0.17 0.25 0.30 0.29 0.24 0.22 0.26 0.33 0.34
0.02 0.03 0.02 0.00 0.00 0.00 0.00 0.00 0.00 0.01 0.03 0.01 0.00 0.00 0.00 0.00 0.00 0.00 0.00 0.00 0.00 0.00 0.00 0.01 0.01 0.02 0.03 0.04 0.06 0.07 0.08 0.06 0.07 0.08 0.09 0.14 0.23 0.27 0.28 0.25 0.20 0.21 0.26 0.30
0.03 0.03 0.01 0.00 0.00 0.00 0.00 0.00 0.00 0.00 0.01 0.01 0.00 0.00 0.00 0.00 0.00 0.01 0.01 0.01 0.00 0.00 0.00 0.00 0.01 0.01 0.01 0.02 0.05 0.06 0.08 0.08 0.09 0.09 0.10 0.11 0.19 0.24 0.24 0.23 0.21 0.21 0.23 0.22
0.03 0.04 0.01 0.01 0.00 0.00 0.00 0.00 0.00 0.00 0.00 0.00 0.00 0.00 0.00 0.00 0.00 0.00 0.01 0.01 0.01 0.00 0.00 0.00 0.01 0.01 0.01 0.03 0.05 0.05 0.07 0.08 0.10 0.11 0.11 0.11 0.16 0.21 0.23 0.21 0.22 0.21 0.22 0.23
0.04 0.04 0.04 0.02 0.00 0.01 0.01 0.00 0.00 0.00 0.00 0.00 0.00 0.00 0.00 0.00 0.00 0.00 0.01 0.01 0.01 0.01 0.00 0.00 0.01 0.01 0.02 0.04 0.05 0.06 0.07 0.08 0.12 0.13 0.11 0.12 0.15 0.17 0.21 0.20 0.20 0.22 0.22 0.21
0.03 0.04 0.07 0.05 0.02 0.01 0.00 0.00 0.00 0.00 0.00 0.00 0.00 0.00 0.00 0.00 0.00 0.00 0.01 0.00 0.00 0.00 0.00 0.00 0.00 0.01 0.02 0.04 0.05 0.06 0.08 0.10 0.13 0.14 0.12 0.12 0.13 0.14 0.17 0.17 0.18 0.21 0.22 0.19
0.01 0.03 0.07 0.06 0.03 0.01 0.00 0.00 0.00 0.00 0.00 0.00 0.00 0.00 0.00 0.00 0.00 0.00 0.00 0.00 0.00 0.00 0.01 0.01 0.00 0.01 0.02 0.05 0.05 0.06 0.07 0.09 0.11 0.13 0.14 0.13 0.12 0.12 0.15 0.16 0.16 0.18 0.20 0.19
0.01 0.03 0.06 0.06 0.04 0.01 0.00 0.00 0.00 0.00 0.00 0.01 0.00 0.00 0.00 0.01 0.01 0.00 0.00 0.00 0.00 0.00 0.01 0.01 0.00 0.00 0.02 0.05 0.06 0.06 0.07 0.07 0.09 0.12 0.13 0.13 0.10 0.10 0.12 0.14 0.14 0.14 0.16 0.17
0.01 0.04 0.05 0.04 0.04 0.01 0.00 0.00 0.00 0.00 0.00 0.00 0.00 0.00 0.00 0.01 0.01 0.01 0.01 0.00 0.00 0.00 0.01 0.00 0.00 0.01 0.03 0.05 0.05 0.05 0.07 0.05 0.07 0.12 0.13 0.12 0.09 0.08 0.09 0.11 0.10 0.12 0.16 0.16
0.00 0.01 0.02 0.02 0.04 0.01 0.00 0.00 0.00 0.00 0.00 0.00 0.00 0.00 0.01 0.01 0.01 0.01 0.01 0.00 0.00 0.01 0.01 0.01 0.01 0.01 0.03 0.04 0.04 0.04 0.04 0.04 0.08 0.12 0.12 0.11 0.08 0.07 0.08 0.09 0.08 0.09 0.13 0.16
0.00 0.00 0.00 0.01 0.01 0.00 0.00 0.00 0.00 0.00 0.00 0.00 0.00 0.00 0.01 0.01 0.01 0.02 0.01 0.00 0.01 0.01 0.01 0.01 0.01 0.01 0.02 0.02 0.03 0.04 0.03 0.04 0.09 0.12 0.09 0.08 0.07 0.06 0.08 0.09 0.08 0.08 0.10 0.13
0.00 0.00 0.01 0.01 0.00 0.00 0.00 0.00 0.00 0.00 0.00 0.00 0.00 0.01 0.01 0.01 0.01 0.02 0.01 0.01 0.01 0.01 0.01 0.01 0.01 0.01 0.01 0.02 0.02 0.03 0.04 0.06 0.10 0.11 0.07 0.07 0.07 0.07 0.10 0.09 0.08 0.08 0.08 0.10
0.00 0.00 0.01 0.01 0.00 0.00 0.00 0.00 0.00 0.00 0.00 0.00 0.00 0.00 0.01 0.01 0.02 0.02 0.01 0.01 0.01 0.01 0.01 0.01 0.01 0.01 0.01 0.02 0.02 0.03 0.05 0.07 0.10 0.09 0.07 0.07 0.08 0.09 0.11 0.10 0.08 0.07 0.07 0.08
0.00 0.00 0.01 0.01 0.00 0.00 0.00 0.00 0.00 0.00 0.00 0.00 0.00 0.00 0.00 0.01 0.02 0.02 0.02 0.01 0.01 0.02 0.02 0.01 0.01 0.01 0.01 0.02 0.03 0.04 0.05 0.06 0.08 0.08 0.07 0.06 0.08 0.09 0.10 0.10 0.09 0.09 0.10 0.11
MSLP
1019.38 1019.78 1020.24 1020.70 1021.10 1021.36 1021.40 1021.14 1020.56 1019.68 1018.54 1017.26 1015.92 1014.65 1013.54 1012.65 1012.00 1011.55 1011.25 1011.02 1010.78 1010.48 1010.07 1009.53 1008.88 1008.13 1007.33 1006.50 1005.67 1004.87 1004.10 1003.39 1002.75 1002.19 1001.72 1001.35 1001.08 1000.88 1000.74 1000.63 1000.52 1000.40 1000.29 1000.21
1019.87 1020.11 1020.38 1020.68 1020.96 1021.15 1021.19 1021.00 1020.53 1019.78 1018.76 1017.56 1016.25 1014.95 1013.74 1012.71 1011.88 1011.25 1010.78 1010.41 1010.06 1009.67 1009.18 1008.57 1007.85 1007.03 1006.13 1005.20 1004.27 1003.38 1002.54 1001.78 1001.11 1000.55 1000.10 999.78 999.56 999.43 999.38 999.37 999.37 999.39 999.41 999.46
1020.29 1020.33 1020.41 1020.54 1020.70 1020.85 1020.93 1020.85 1020.54 1019.97 1019.12 1018.04 1016.78 1015.45 1014.14 1012.94 1011.91 1011.06 1010.39 1009.83 1009.34 1008.84 1008.28 1007.61 1006.81 1005.91 1004.93 1003.89 1002.85 1001.84 1000.90 1000.06 999.34 998.76 998.32 998.03 997.87 997.83 997.88 997.98 998.13 998.28 998.46 998.65
1020.70 1020.56 1020.45 1020.42 1020.49 1020.64 1020.79 1020.86 1020.76 1020.39 1019.73 1018.78 1017.57 1016.20 1014.77 1013.38 1012.12 1011.02 1010.12 1009.36 1008.71 1008.10 1007.45 1006.71 1005.86 1004.88 1003.80 1002.65 1001.48 1000.34 999.28 998.33 997.54 996.92 996.48 996.22 996.11 996.16 996.31 996.54 996.82 997.13 997.45 997.79
1021.20 1020.89 1020.62 1020.48 1020.50 1020.66 1020.92 1021.16 1021.25 1021.10 1020.62 1019.78 1018.61 1017.18 1015.60 1014.00 1012.48 1011.13 1009.97 1009.01 1008.20 1007.46 1006.73 1005.92 1005.00 1003.95 1002.77 1001.50 1000.19 998.90 997.71 996.65 995.78 995.11 994.67 994.43 994.40 994.52 994.79 995.14 995.55 995.98 996.43 996.89
1021.82 1021.39 1021.01 1020.79 1020.79 1021.00 1021.36 1021.76 1022.03 1022.06 1021.71 1020.95 1019.78 1018.27 1016.53 1014.70 1012.92 1011.30 1009.90 1008.73 1007.75 1006.89 1006.07 1005.20 1004.21 1003.08 1001.79 1000.40 998.95 997.53 996.20 995.04 994.10 993.40 992.96 992.78 992.81 993.04 993.40 993.86 994.37 994.91 995.45 996.00
1022.54 1022.04 1021.60 1021.35 1021.36 1021.62 1022.08 1022.60 1023.01 1023.15 1022.89 1022.16 1020.94 1019.32 1017.40 1015.34 1013.32 1011.45 1009.81 1008.44 1007.31 1006.33 1005.42 1004.47 1003.41 1002.19 1000.80 999.29 997.71 996.16 994.72 993.48 992.50 991.80 991.41 991.29 991.42 991.75 992.22 992.77 993.36 993.97 994.57 995.16
1023.31 1022.78 1022.33 1022.08 1022.11 1022.43 1022.95 1023.54 1024.02 1024.21 1023.97 1023.20 1021.91 1020.15 1018.05 1015.79 1013.54 1011.45 1009.62 1008.07 1006.79 1005.70 1004.69 1003.66 1002.51 1001.19 999.70 998.07 996.39 994.74 993.23 991.95 990.97 990.32 990.00 989.99 990.24 990.68 991.26 991.89 992.55 993.19 993.81 994.42
1024.00 1023.49 1023.07 1022.85 1022.91 1023.26 1023.81 1024.41 1024.89 1025.06 1024.76 1023.92 1022.52 1020.62 1018.38 1015.94 1013.52 1011.26 1009.26 1007.57 1006.16 1004.95 1003.85 1002.71 1001.47 1000.05 998.45 996.73 994.95 993.23 991.68 990.41 989.48 988.91 988.71 988.84 989.23 989.80 990.48 991.20 991.90 992.56 993.19 993.79
1024.51 1024.05 1023.68 1023.51 1023.61 1023.96 1024.49 1025.05 1025.47 1025.55 1025.15 1024.21 1022.69 1020.68 1018.32 1015.78 1013.24 1010.86 1008.76 1006.96 1005.44 1004.13 1002.91 1001.67 1000.31 998.78 997.08 995.26 993.41 991.65 990.10 988.86 988.01 987.56 987.50 987.78 988.33 989.04 989.83 990.63 991.37 992.06 992.68 993.27
1024.73 1024.36 1024.07 1023.96 1024.09 1024.43 1024.90 1025.36 1025.66 1025.61 1025.10 1024.03 1022.42 1020.35 1017.93 1015.34 1012.76 1010.35 1008.19 1006.32 1004.72 1003.31 1001.97 1000.61 999.12 997.47 995.66 993.75 991.84 990.06 988.52 987.34 986.58 986.25 986.34 986.77 987.47 988.31 989.22 990.10 990.90 991.61 992.25 992.84
1024.66 1024.40 1024.21 1024.17 1024.31 1024.61 1025.00 1025.34 1025.49 1025.30 1024.65 1023.49 1021.83 1019.73 1017.32 1014.77 1012.23 1009.84 1007.68 1005.79 1004.12 1002.62 1001.17 999.67 998.04 996.26 994.34 992.34 990.38 988.57 987.05 985.92 985.23 985.01 985.22 985.78 986.60 987.57 988.58 989.54 990.41 991.18 991.86 992.49
1024.37 1024.23 1024.14 1024.16 1024.31 1024.56 1024.84 1025.05 1025.04 1024.70 1023.94 1022.72 1021.04 1018.99 1016.66 1014.21 1011.77 1009.46 1007.36 1005.47 1003.77 1002.18 1000.61 998.98 997.21 995.29 993.25 991.17 989.14 987.30 985.79 984.69 984.05 983.90 984.18 984.83 985.74 986.80 987.90 988.95 989.90 990.75 991.50 992.20
1023.98 1023.96 1023.97 1024.04 1024.18 1024.36 1024.53 1024.58 1024.42 1023.95 1023.11 1021.86 1020.22 1018.26 1016.08 1013.78 1011.50 1009.33 1007.31 1005.45 1003.72 1002.06 1000.38 998.61 996.71 994.66 992.51 990.34 988.26 986.38 984.85 983.75 983.13 982.99 983.30 983.99 984.94 986.05 987.21 988.34 989.39 990.33 991.20 992.01
1023.63 1023.71 1023.80 1023.90 1024.01 1024.11 1024.14 1024.05 1023.74 1023.17 1022.27 1021.03 1019.47 1017.65 1015.65 1013.56 1011.47 1009.45 1007.53 1005.72 1003.98 1002.25 1000.48 998.59 996.56 994.40 992.16 989.92 987.78 985.87 984.31 983.19 982.54 982.38 982.67 983.34 984.29 985.41 986.62 987.82 988.95 990.01 991.00 991.95
1023.43 1023.60 1023.73 1023.82 1023.87 1023.86 1023.76 1023.51 1023.08 1022.42 1021.49 1020.30 1018.85 1017.20 1015.41 1013.53 1011.64 1009.78 1007.98 1006.22 1004.47 1002.70 1000.83 998.85 996.73 994.48 992.18 989.89 987.72 985.78 984.20 983.03 982.34 982.13 982.36 982.97 983.88 985.00 986.22 987.47 988.69 989.87 990.99 992.07
1023.45 1023.65 1023.77 1023.81 1023.77 1023.63 1023.38 1023.00 1022.46 1021.73 1020.80 1019.67 1018.36 1016.88 1015.30 1013.63 1011.94 1010.24 1008.54 1006.83 1005.08 1003.27 1001.34 999.28 997.10 994.81 992.47 990.17 988.00 986.07 984.47 983.28 982.54 982.26 982.42 982.97 983.82 984.90 986.12 987.41 988.70 989.98 991.22 992.44
1023.64 1023.81 1023.88 1023.82 1023.65 1023.37 1022.98 1022.47 1021.83 1021.06 1020.15 1019.11 1017.93 1016.64 1015.25 1013.78 1012.26 1010.70 1009.09 1007.42 1005.68 1003.83 1001.86 999.77 997.56 995.26 992.94 990.67 988.54 986.64 985.07 983.88 983.11 982.79 982.88 983.36 984.15 985.19 986.39 987.70 989.04 990.40 991.74 993.06
1023.87 1023.97 1023.93 1023.74 1023.43 1023.00 1022.47 1021.85 1021.15 1020.37 1019.50 1018.55 1017.51 1016.39 1015.18 1013.89 1012.52 1011.07 1009.53 1007.90 1006.16 1004.30 1002.31 1000.21 998.00 995.74 993.48 991.28 989.23 987.40 985.88 984.72 983.97 983.62 983.68 984.10 984.84 985.84 987.03 988.34 989.72 991.13 992.54 993.92
1023.98 1023.96 1023.78 1023.45 1022.99 1022.42 1021.79 1021.09 1020.36 1019.60 1018.80 1017.96 1017.06 1016.10 1015.06 1013.92 1012.68 1011.32 1009.84 1008.24 1006.50 1004.64 1002.65 1000.56 998.39 996.19 994.01 991.91 989.97 988.24 986.81 985.72 985.00 984.67 984.71 985.11 985.83 986.80 987.97 989.28 990.68 992.11 993.55 994.97
1023.80 1023.64 1023.31 1022.84 1022.25 1021.59 1020.88 1020.16 1019.45 1018.74 1018.04 1017.33 1016.58 1015.78 1014.88 1013.88 1012.74 1011.46 1010.03 1008.45 1006.73 1004.87 1002.90 1000.83 998.72 996.59 994.51 992.52 990.70 989.09 987.77 986.77 986.11 985.82 985.89 986.29 987.00 987.96 989.12 990.42 991.82 993.25 994.69 996.10
1023.24 1022.93 1022.46 1021.88 1021.21 1020.49 1019.78 1019.09 1018.44 1017.83 1017.26 1016.69 1016.10 1015.44 1014.68 1013.80 1012.75 1011.54 1010.16 1008.61 1006.90 1005.06 1003.11 1001.09 999.03 996.98 994.99 993.12 991.41 989.92 988.71 987.80 987.22 986.99 987.09 987.52 988.24 989.20 990.35 991.65 993.03 994.45 995.87 997.26
1022.28 1021.84 1021.27 1020.61 1019.91 1019.21 1018.54 1017.93 1017.40 1016.93 1016.51 1016.10 1015.66 1015.15 1014.52 1013.74 1012.78 1011.63 1010.30 1008.78 1007.10 1005.28 1003.37 1001.38 999.38 997.41 995.50 993.72 992.11 990.72 989.60 988.77 988.27 988.10 988.25 988.71 989.45 990.42 991.58 992.87 994.23 995.63 997.02 998.38
1020.99 1020.45 1019.83 1019.15 1018.48 1017.84 1017.28 1016.81 1016.43 1016.13 1015.87 1015.62 1015.33 1014.95 1014.43 1013.74 1012.86 1011.78 1010.49 1009.02 1007.38 1005.60 1003.72 1001.78 999.83 997.91 996.07 994.35 992.82 991.50 990.45 989.69 989.25 989.13 989.33 989.83 990.59 991.58 992.75 994.03 995.38 996.76 998.12 999.45
1019.54 1018.94 1018.30 1017.66 1017.07 1016.55 1016.13 1015.83 1015.62 1015.49 1015.40 1015.30 1015.13 1014.87 1014.45 1013.85 1013.03 1012.01 1010.77 1009.35 1007.75 1006.02 1004.19 1002.30 1000.39 998.51 996.72 995.05 993.55 992.28 991.27 990.56 990.17 990.09 990.33 990.87 991.66 992.67 993.85 995.13 996.48 997.84 999.18 1000.48
1018.09 1017.48 1016.87 1016.31 1015.83 1015.46 1015.21 1015.08 1015.05 1015.08 1015.13 1015.16 1015.10 1014.92 1014.58 1014.03 1013.28 1012.31 1011.13 1009.76 1008.22 1006.54 1004.76 1002.92 1001.05 999.22 997.45 995.81 994.34 993.10 992.12 991.43 991.07 991.03 991.30 991.87 992.69 993.73 994.92 996.22 997.56 998.91 1000.24 1001.52
Thickness
5563 5548 5542 5543 5541 5537 5528 5520 5513 5522 5528 5522 5520 5525 5530 5531 5524 5520 5519 5521 5522 5526 5530 5533 5534 5535 5537 5540 5544 5550 5555 5561 5567 5573 5580 5588 5597 5606 5615 5623 5631 5637 5642 5647
5546 5543 5549 5547 5542 5534 5523 5512 5509 5519 5524 5519 5516 5520 5524 5524 5520 5517 5513 5512 5513 5517 5521 5523 5523 5522 5524 5528 5532 5537 5544 5551 5557 5563 5571 5580 5587 5596 5606 5614 5621 5628 5633 5639
5543 5545 5549 5543 5534 5526 5519 5509 5506 5508 5512 5508 5501 5506 5514 5516 5515 5513 5508 5505 5505 5508 5510 5512 5513 5514 5516 5518 5522 5528 5535 5542 5548 5555 5561 5569 5574 5584 5592 5602 5611 5620 5625 5631
5538 5542 5541 5534 5527 5521 5509 5515 5510 5504 5487 5478 5484 5478 5501 5503 5503 5504 5501 5497 5497 5499 5500 5503 5504 5506 5508 5511 5515 5520 5526 5533 5540 5547 5552 5559 5565 5574 5586 5595 5603 5611 5618 5623
5528 5534 5531 5524 5522 5517 5507 5511 5503 5495 5480 5467 5470 5460 5485 5489 5491 5494 5493 5492 5491 5491 5492 5494 5496 5498 5501 5504 5508 5514 5520 5527 5534 5539 5545 5551 5558 5567 5577 5585 5594 5602 5609 5615
5523 5527 5525 5521 5519 5512 5504 5494 5490 5475 5462 5456 5467 5457 5469 5473 5479 5483 5485 5484 5484 5483 5484 5486 5488 5491 5494 5497 5502 5509 5516 5521 5526 5532 5539 5545 5552 5559 5567 5577 5585 5593 5601 5608
5506 5514 5517 5515 5507 5501 5487 5464 5453 5444 5430 5442 5466 5460 5468 5476 5477 5476 5476 5475 5476 5476 5476 5477 5480 5483 5487 5491 5497 5503 5509 5514 5520 5526 5533 5540 5548 5554 5561 5570 5579 5588 5595 5602
5482 5493 5504 5502 5496 5485 5475 5458 5437 5425 5422 5444 5457 5457 5472 5476 5475 5473 5472 5470 5469 5469 5469 5471 5473 5476 5480 5484 5489 5494 5500 5507 5513 5520 5528 5536 5543 5549 5556 5565 5575 5584 5591 5599
5473 5480 5494 5494 5491 5483 5468 5450 5443 5421 5411 5415 5438 5448 5464 5474 5470 5467 5465 5463 5461 5462 5464 5465 5467 5469 5472 5476 5481 5487 5494 5502 5508 5515 5522 5530 5538 5545 5552 5561 5570 5579 5587 5594
5473 5464 5476 5481 5484 5479 5467 5451 5424 5412 5400 5404 5425 5432 5445 5457 5457 5457 5456 5454 5454 5456 5459 5460 5462 5464 5468 5471 5476 5482 5488 5494 5502 5510 5516 5524 5533 5541 5548 5557 5565 5573 5582 5589
5469 5454 5460 5462 5465 5462 5455 5443 5428 5408 5399 5395 5402 5441 5460 5451 5452 5448 5447 5447 5448 5449 5451 5453 5456 5460 5463 5466 5471 5476 5482 5488 5495 5503 5511 5518 5527 5536 5543 5553 5561 5568 5577 5584
5463 5445 5439 5450 5462 5460 5451 5438 5421 5406 5397 5391 5393 5436 5463 5453 5447 5443 5441 5442 5444 5445 5446 5448 5451 5454 5457 5461 5465 5470 5476 5482 5489 5497 5505 5513 5522 5529 5539 5548 5557 5565 5572 5579
5457 5437 5431 5452 5450 5443 5434 5430 5420 5407 5397 5392 5392 5431 5457 5446 5442 5441 5438 5437 5438 5439 5441 5443 5446 5449 5452 5456 5460 5466 5472 5478 5484 5491 5499 5508 5516 5525 5534 5544 5552 5560 5569 5577
5459 5433 5432 5443 5448 5432 5423 5423 5418 5404 5395 5396 5409 5430 5448 5441 5437 5435 5433 5431 5431 5432 5435 5437 5440 5443 5447 5451 5455 5461 5468 5474 5480 5486 5494 5503 5512 5521 5530 5540 5549 5557 5566 5573
5449 5434 5427 5436 5441 5433 5431 5431 5425 5411 5406 5400 5419 5425 5439 5436 5429 5427 5426 5426 5428 5429 5431 5433 5435 5437 5442 5446 5452 5458 5463 5470 5477 5483 5491 5500 5509 5517 5526 5536 5546 5554 5561 5568
5436 5428 5423 5430 5435 5430 5432 5439 5433 5427 5422 5416 5418 5426 5436 5430 5424 5420 5419 5420 5422 5422 5424 5426 5430 5432 5436 5441 5447 5453 5459 5466 5473 5479 5487 5497 5505 5513 5522 5532 5541 5549 5556 5562
5426 5417 5413 5421 5423 5420 5425 5440 5435 5429 5426 5420 5417 5427 5429 5423 5420 5416 5415 5415 5415 5415 5417 5419 5421 5424 5429 5435 5441 5447 5454 5462 5469 5475 5483 5491 5500 5509 5517 5527 5536 5543 5550 5557
5423 5411 5406 5407 5401 5403 5443 5441 5436 5429 5430 5423 5422 5423 5420 5418 5416 5413 5411 5409 5409 5410 5411 5412 5414 5418 5424 5430 5435 5442 5449 5456 5463 5470 5477 5486 5494 5503 5511 5520 5529 5537 5543 5549
5428 5413 5403 5396 5389 5405 5433 5436 5428 5419 5421 5425 5420 5419 5415 5412 5409 5408 5409 5407 5405 5405 5406 5407 5410 5414 5418 5424 5430 5436 5443 5449 5456 5463 5470 5478 5486 5495 5504 5512 5521 5529 5535 5541
5419 5409 5401 5393 5385 5397 5432 5432 5427 5415 5405 5420 5415 5411 5408 5402 5394 5403 5407 5404 5402 5402 5403 5405 5407 5410 5414 5419 5424 5429 5436 5442 5448 5456 5464 5471 5479 5488 5496 5504 5513 5521 5528 5535
5403 5396 5396 5393 5388 5405 5427 5423 5416 5397 5404 5415 5410 5405 5400 5393 5392 5397 5398 5397 5398 5399 5400 5402 5403 5406 5410 5414 5418 5424 5430 5436 5443 5450 5457 5465 5473 5480 5488 5497 5506 5514 5521 5528
5403 5392 5386 5384 5383 5406 5425 5412 5404 5405 5410 5407 5403 5399 5394 5392 5392 5391 5390 5391 5392 5393 5395 5397 5398 5402 5406 5409 5412 5418 5425 5431 5438 5445 5451 5458 5466 5473 5483 5490 5499 5507 5513 5520
5407 5409 5400 5398 5415 5423 5416 5412 5410 5406 5401 5399 5395 5393 5389 5387 5386 5386 5385 5385 5385 5386 5388 5390 5392 5396 5401 5404 5408 5412 5420 5426 5433 5439 5445 5452 5460 5468 5476 5483 5492 5499 5506 5513
5406 5406 5396 5394 5408 5411 5408 5403 5402 5399 5395 5394 5390 5386 5383 5380 5380 5378 5378 5378 5378 5380 5382 5384 5386 5390 5396 5401 5404 5408 5414 5421 5427 5433 5440 5447 5454 5461 5469 5477 5486 5493 5500 5506
5408 5398 5391 5393 5404 5401 5402 5399 5398 5395 5391 5387 5384 5381 5377 5374 5373 5372 5371 5372 5372 5375 5376 5378 5381 5385 5390 5395 5400 5405 5410 5416 5421 5427 5433 5439 5446 5454 5462 5470 5478 5486 5494 5501
5406 5400 5394 5402 5404 5394 5396 5396 5392 5388 5385 5381 5377 5375 5372 5368 5367 5366 5365 5366 5367 5369 5370 5373 5376 5380 5385 5389 5395 5401 5406 5410 5416 5421 5427 5433 5440 5447 5455 5463 5471 5479 5486 5494